Dewpoint
46 47 48 48 48 48 46 42 35 44 48 41 40 35 29 28 28 32 32 33 26 22 25 26 23 22 25 32 30 28 27 23 19 23 28 28 26 23 23 20 17 23 17 16
45 46 47 48 48 47 43 34 35 44 43 35 37 35 32 31 30 29 28 29 31 32 27 25 26 27 36 36 32 28 28 25 19 23 27 27 26 26 25 22 20 17 18 16
45 46 47 48 48 48 43 36 31 34 36 36 37 35 34 34 37 33 32 31 32 31 29 29 26 29 36 36 37 38 37 28 18 11 15 23 24 25 26 24 22 20 18 18
45 45 47 47 48 48 42 36 31 33 30 31 33 36 35 35 34 35 36 35 33 31 27 26 26 28 35 35 34 36 37 32 27 25 23 28 29 25 25 25 25 23 23 21
45 43 44 46 48 47 40 34 33 34 31 32 32 33 30 29 29 31 32 32 33 35 33 32 31 33 31 31 33 34 34 32 33 30 31 31 30 30 30 30 29 28 28 27
44 44 45 44 46 45 40 41 40 37 32 31 32 30 30 30 31 31 31 31 30 31 30 33 34 35 34 33 32 31 30 31 29 25 28 29 26 28 28 28 29 31 30 28
43 43 44 45 45 46 41 40 39 35 29 32 30 31 32 30 31 29 31 33 31 32 37 36 35 34 33 33 32 33 30 30 29 26 27 19 25 27 27 26 26 25 20 17
42 43 44 44 44 45 43 41 37 34 30 31 31 31 31 32 33 31 31 33 34 37 34 29 26 27 28 29 31 31 32 30 25 23 23 25 25 25 25 25 24 21 18 13
43 45 45 45 45 46 44 42 40 37 32 30 29 29 29 29 29 30 31 35 36 35 29 26 21 20 20 17 24 29 28 30 26 24 19 17 22 21 25 28 22 26 15 11
43 43 43 44 45 45 43 42 43 38 32 31 29 28 29 29 29 29 30 32 32 34 28 21 19 19 19 15 14 22 24 25 21 22 20 23 24 23 26 17 22 21 14 13
43 42 42 43 44 45 43 41 43 40 34 33 32 32 30 31 29 26 29 29 31 29 25 21 20 19 18 18 17 19 18 19 19 21 17 14 25 22 19 16 13 11 12 14
40 41 42 42 43 45 42 38 43 42 37 35 36 35 36 34 32 31 31 29 29 28 27 28 26 23 24 19 13 22 17 18 15 16 17 27 26 18 17 11 9 11 12 15
38 40 42 43 43 43 43 40 41 39 35 34 34 33 34 35 36 36 32 32 31 32 31 30 29 23 25 19 19 19 19 22 19 19 20 23 26 20 14 14 14 22 24 24
38 39 42 42 44 44 43 40 41 38 35 30 30 31 31 32 34 36 34 33 34 34 34 31 28 24 25 19 19 17 17 20 17 18 18 20 20 17 11 17 20 19 19 19
39 39 41 42 43 43 42 41 41 40 34 28 28 29 28 31 32 34 35 34 34 32 29 28 25 27 24 24 23 20 18 15 14 12 13 14 14 16 19 17 18 18 17 17
40 39 39 42 44 41 38 33 39 40 39 30 26 27 27 31 32 32 33 35 34 33 31 30 30 28 27 23 19 17 18 18 18 16 17 18 18 18 17 18 17 16 16 15
40 41 41 39 39 39 34 32 37 40 38 29 25 25 26 28 30 31 32 34 31 31 30 28 28 26 27 25 18 17 16 17 16 16 16 17 18 18 17 16 15 15 15 16
41 41 40 39 37 37 34 38 38 37 32 31 23 22 23 27 25 25 29 29 30 29 29 26 23 25 26 20 18 16 15 16 16 15 15 15 16 15 14 13 14 14 14 14
38 38 36 35 34 32 34 39 37 36 33 26 24 20 19 26 24 25 27 28 24 26 24 23 22 22 18 15 15 14 13 13 14 14 14 13 12 12 12 12 12 12 12 12
33 32 31 27 32 38 36 31 28 29 29 29 22 21 20 21 20 21 21 23 22 18 19 23 21 16 11 11 12 13 13 14 13 13 13 12 12 11 11 10 10 10 10 10
32 29 27 34 35 31 27 23 22 23 21 23 22 20 20 22 19 19 20 19 18 15 16 17 15 13 11 12 12 12 12 11 11 11 11 10 10 10 10 10 9 8 8 7
32 31 33 32 28 24 19 18 19 18 17 20 20 21 22 22 22 21 21 18 17 13 18 15 11 10 10 12 12 13 14 13 11 10 10 10 9 9 10 10 10 9 8 8
35 30 26 25 22 16 15 12 15 16 19 20 20 19 22 22 23 22 19 16 14 16 14 11 10 10 11 12 12 12 12 12 12 11 10 10 10 9 10 11 10 9 9 8
29 25 19 19 16 17 17 15 17 16 18 19 20 19 19 21 19 21 16 17 16 12 10 9 8 10 11 12 12 13 11 9 9 9 9 9 9 9 9 10 10 10 10 9
25 23 18 18 15 14 14 15 16 15 17 19 19 19 19 18 18 18 18 13 10 10 8 8 9 11 11 9 6 5 6 8 8 8 8 8 8 9 9 8 9 9 9 9
19 17 15 14 15 13 14 15 14 13 15 18 19 17 15 15 15 13 12 10 8 8 9 10 10 8 6 5 4 4 6 7 8 9 9 8 8 8 8 8 8 8 8 8
14 12 13 14 13 13 12 14 12 12 15 16 17 13 11 13 11 9 9 8 9 10 10 7 6 7 7 7 6 5 6 6 7 8 8 8 8 8 7 6 6 8 9 9
Wind_Speed
7 9 11 4 7 9 5 5 7 4 4 22 19 27 23 7 15 11 4 2 9 12 12 13 16 14 4 2 10 10 12 5 13 9 2 3 12 16 19 11 9 9 11 11
1 8 10 8 3 5 3 3 1 2 4 19 24 12 27 13 16 16 7 6 7 5 7 8 12 10 4 2 8 10 12 10 8 6 3 4 8 13 12 20 16 27 20 7
4 3 9 7 4 5 3 2 4 3 6 3 11 19 20 22 5 11 11 6 8 7 8 10 5 9 2 3 2 3 2 6 15 20 5 3 5 11 15 19 20 21 27 24
2 5 9 9 4 5 3 1 1 1 4 2 7 6 5 19 9 1 1 8 16 14 10 15 18 11 4 3 3 1 2 9 14 19 19 12 13 15 12 18 23 22 22 22
6 2 2 8 8 7 2 3 2 4 3 4 11 5 3 6 6 3 4 7 4 8 11 7 6 7 11 6 4 1 3 4 2 12 11 11 17 20 20 23 23 28 28 27
7 4 3 3 9 4 3 0 2 2 2 2 5 3 6 6 12 5 6 8 8 6 5 9 9 10 9 4 5 4 2 5 6 29 14 9 17 19 25 26 11 3 15 2
5 5 3 3 3 1 1 2 3 2 3 3 4 11 9 13 4 9 5 7 6 5 7 8 7 9 7 6 4 3 4 3 4 6 7 11 2 6 3 7 10 11 10 5
1 2 3 3 4 6 2 2 3 4 6 11 15 15 15 15 13 9 10 5 7 11 5 4 3 2 2 2 2 4 2 1 3 4 8 1 3 4 5 2 8 6 4 3
3 5 7 4 8 8 3 1 2 2 10 6 17 16 15 16 10 6 5 5 5 3 2 3 3 3 3 4 4 2 6 5 3 4 4 4 4 6 4 5 7 12 3 3
3 3 2 9 4 12 6 1 3 1 6 6 16 8 11 9 6 8 6 6 3 2 2 3 3 4 2 4 4 5 4 4 10 9 3 2 9 6 7 3 4 8 3 4
3 2 1 1 7 7 7 2 4 3 3 6 2 3 10 8 9 12 11 7 1 2 2 2 3 3 5 3 1 5 7 5 4 3 3 8 14 6 5 5 4 1 4 6
9 6 6 4 1 7 6 3 4 4 4 4 3 7 8 6 6 7 11 2 6 5 3 1 2 2 2 3 3 4 5 7 2 6 1 3 20 1 4 0 3 3 7 8
9 11 6 6 6 5 4 5 4 5 4 5 3 4 7 8 9 5 4 1 3 4 3 3 2 2 3 5 6 2 3 1 2 2 6 10 14 5 3 4 2 2 3 5
8 6 1 1 6 9 6 5 4 5 4 3 3 1 5 7 8 6 8 9 6 6 2 2 2 2 3 3 1 5 2 4 2 8 8 6 10 7 4 3 2 4 4 5
10 6 2 4 7 15 15 9 4 3 2 3 4 4 5 7 5 4 4 7 6 3 3 2 4 1 3 1 2 8 6 9 12 17 11 10 5 7 2 3 4 4 6 8
11 5 1 9 14 13 6 3 3 3 1 3 4 3 5 8 7 7 5 6 4 3 4 3 3 1 4 5 5 4 4 8 7 6 7 7 6 5 5 3 3 5 7 7
7 15 24 20 18 12 4 3 2 1 2 2 5 3 3 4 2 3 4 4 3 2 3 4 3 4 5 3 8 4 7 6 5 7 6 3 7 2 5 5 6 6 6 5
20 21 20 18 11 5 6 11 8 7 5 3 4 3 3 2 2 3 2 3 2 2 1 2 3 4 4 6 3 6 6 2 6 8 7 4 4 3 5 6 5 6 6 6
12 11 13 7 7 4 2 1 5 7 4 1 1 6 4 1 2 3 2 1 5 2 4 5 6 5 8 1 4 5 7 5 7 9 5 4 2 2 3 4 5 7 7 8
4 3 3 3 4 2 5 2 2 4 5 3 1 1 4 3 4 4 4 1 0 3 3 5 5 5 6 5 5 4 5 5 7 3 1 5 4 5 6 7 7 9 10 12
3 3 3 1 3 2 2 1 0 1 1 1 2 1 5 2 3 4 2 3 3 3 3 5 5 4 3 3 4 3 3 4 4 3 4 5 7 9 11 12 11 12 13 13
4 7 3 0 2 2 0 1 1 2 0 2 1 3 3 3 1 3 4 3 3 3 5 3 4 3 3 2 1 2 3 4 6 7 8 9 10 11 12 12 13 14 13 15
3 2 2 1 0 2 4 5 3 3 4 3 3 3 2 2 2 2 3 4 5 4 4 3 2 3 2 1 1 3 4 5 7 9 9 11 12 12 11 13 14 16 15 15
2 3 4 4 4 4 2 0 2 3 2 6 4 4 2 2 3 2 4 3 4 4 5 2 3 4 1 2 3 6 8 8 9 11 12 12 12 13 14 14 14 14 16 17
2 2 3 4 2 3 2 2 2 3 1 3 3 3 1 3 2 3 2 4 5 1 1 3 5 2 2 5 7 9 11 10 11 11 12 13 14 14 15 15 14 14 15 17
2 3 1 2 2 1 2 1 2 3 1 0 0 3 3 4 2 3 4 2 3 3 3 5 1 3 5 8 10 11 11 11 12 12 13 15 15 16 17 16 17 16 17 17
2 2 4 3 3 3 3 2 2 4 1 2 2 5 3 3 2 3 1 0 3 4 2 1 3 5 8 9 11 11 12 13 13 14 15 16 15 15 15 18 20 15 16 15
Wind_Direction
295 324 327 313 31 3 37 13 134 358 248 174 200 212 209 200 185 190 187 269 232 206 188 191 201 201 182 180 158 174 201 266 231 205 124 282 243 231 218 227 226 223 272 260
274 311 324 301 153 39 41 74 3 358 325 184 190 193 211 206 199 196 195 210 216 218 214 205 206 198 56 42 178 180 167 208 222 194 232 214 229 222 242 236 268 255 251 239
256 317 325 278 235 142 84 100 156 2 21 15 176 186 194 198 243 241 227 227 192 189 229 240 215 194 59 26 80 21 142 234 213 234 264 67 205 226 223 231 241 257 248 263
189 47 347 327 238 135 83 51 62 60 155 151 107 126 135 199 192 144 241 226 222 212 229 231 235 223 143 87 8 73 257 248 249 257 266 272 251 251 233 233 241 251 266 266
192 113 15 332 315 136 96 129 135 73 53 94 120 98 125 138 109 83 203 227 183 203 215 215 212 226 228 231 89 109 355 252 246 257 243 239 255 251 248 248 248 257 268 269
217 225 122 325 329 94 106 32 41 90 115 124 104 119 133 138 135 68 91 96 103 122 113 86 71 74 68 100 139 150 165 192 217 263 261 273 266 245 245 249 268 325 256 350
249 191 204 213 281 225 37 153 140 130 108 118 112 140 132 136 132 130 113 89 94 122 132 111 75 69 73 81 77 63 141 152 176 266 123 226 61 23 242 115 107 106 103 84
56 157 185 168 242 278 264 154 180 145 127 127 129 129 120 111 101 93 102 83 113 149 110 97 95 79 132 117 167 191 232 139 206 228 218 82 182 173 134 146 166 138 108 2
142 106 49 288 225 194 113 143 327 107 130 179 151 137 138 128 119 95 97 87 131 185 119 124 141 151 120 143 132 47 184 259 241 188 235 240 104 135 130 122 208 195 188 304
156 150 81 24 208 163 162 323 351 68 111 132 155 155 165 143 125 112 138 149 153 284 161 134 142 152 129 192 195 167 174 196 230 239 256 259 158 150 150 197 140 170 244 288
326 290 244 347 18 208 149 180 20 23 85 118 114 119 160 148 157 156 145 132 151 144 160 170 166 180 179 192 153 185 198 209 206 214 256 261 162 130 205 101 120 184 298 297
345 305 227 190 211 121 67 91 99 15 76 101 60 83 50 37 36 123 169 59 136 156 164 178 129 156 160 202 216 187 228 223 238 214 13 123 169 57 176 345 256 283 290 292
341 339 229 235 201 177 143 117 119 69 76 65 148 117 36 48 29 357 145 143 121 146 25 116 94 177 182 197 232 237 225 163 254 338 175 167 182 184 220 197 285 327 284 285
340 337 174 331 103 140 120 111 112 87 83 121 132 15 48 2 15 51 57 117 86 90 51 81 132 219 206 238 332 252 1 133 288 259 258 209 209 239 219 187 310 309 308 300
342 318 185 216 147 94 83 75 65 95 55 107 120 111 33 12 38 83 120 127 102 100 109 155 217 122 161 194 300 250 210 246 239 256 282 240 282 130 75 308 332 343 325 315
338 335 224 180 137 106 88 74 358 51 29 103 127 63 36 51 81 89 123 116 107 134 176 191 195 88 172 199 240 249 210 237 22 286 31 58 77 85 39 8 357 335 321 319
51 88 96 72 59 65 47 14 136 107 43 91 110 113 43 357 64 67 74 72 93 129 178 205 149 173 198 224 252 22 68 58 44 27 346 178 58 50 18 355 337 325 309 300
62 73 86 104 106 81 30 16 29 35 80 35 124 121 145 343 124 121 35 149 165 184 140 149 195 141 215 246 236 81 34 40 59 28 26 25 8 11 359 343 327 311 297 306
100 82 43 42 36 43 18 128 46 57 51 125 165 161 156 180 96 89 119 356 197 105 218 191 182 175 218 113 58 59 25 24 346 344 9 17 354 326 328 326 314 304 300 301
79 21 49 65 3 357 330 7 24 26 8 34 148 122 124 175 163 151 140 199 171 222 184 129 218 237 92 44 37 32 25 21 8 6 354 353 334 331 321 311 303 295 293 298
31 42 58 343 348 20 31 94 111 334 186 130 89 43 132 184 153 147 221 184 180 231 154 211 205 230 68 48 62 56 40 23 13 4 317 306 300 301 302 302 302 300 297 296
38 110 111 104 34 64 73 110 319 228 216 129 153 95 60 127 346 177 175 188 178 236 135 208 234 90 86 83 37 354 341 330 330 327 306 302 299 297 294 291 294 297 296 297
341 62 97 213 43 204 209 199 201 206 161 154 148 126 116 140 215 147 167 198 217 124 201 224 54 104 124 159 271 287 294 280 294 299 299 299 297 296 290 289 290 291 289 289
262 200 223 213 197 236 204 279 83 77 123 143 141 129 145 144 168 169 211 147 167 225 220 194 126 137 153 252 278 283 301 306 303 303 301 296 292 287 288 284 280 281 281 288
285 282 235 217 95 58 53 70 109 56 61 144 119 105 202 158 213 203 186 200 226 255 143 124 139 114 344 317 313 308 305 307 298 299 298 294 288 284 285 287 282 280 280 280
37 45 136 86 181 125 139 117 111 10 355 262 260 149 173 198 225 197 212 240 214 133 121 110 108 318 318 314 308 303 300 292 290 288 286 291 289 285 285 290 283 279 273 272
51 46 27 18 58 54 87 30 64 340 255 199 190 196 186 112 190 210 203 141 102 117 126 319 322 308 306 305 302 302 304 301 298 294 291 288 289 287 283 281 285 281 279 275